HAZ2147 ZSHC-ZSJN

Flight info

Callsign HAZ2147
Flight time 1h 22m
Altitude 34100
Route NIVIK8D NIVIK W135 DOGVI A470 DPX A593 ABTUB ABTUB6W
Aircraft E75L/M-SDE3GILORVW/S

Departure

Time 2026-05-04 01:54
Airport Hangzhou Xiaoshan International Airport (ZSHC)

Arrival

Time 2026-05-04 03:16
Airport Jinan Yaoqiang International Airport (ZSJN)
Time Latitude Longitude Altitude Speed Heading
2026-05-04 01:27 30.24047 120.42670 27 ft 0 kts 70°
2026-05-04 01:40 30.24047 120.42671 27 ft 0 kts 70°
2026-05-04 01:41 30.24046 120.42670 27 ft 1 kts 70°
2026-05-04 01:41 30.24042 120.42654 27 ft 2 kts 70°
2026-05-04 01:41 30.24036 120.42638 27 ft 1 kts 70°
2026-05-04 01:41 30.24032 120.42628 27 ft 2 kts 53°
2026-05-04 01:42 30.24021 120.42618 27 ft 2 kts 16°
2026-05-04 01:42 30.24007 120.42618 27 ft 2 kts 340°
2026-05-04 01:42 30.24001 120.42620 27 ft 0 kts 332°
2026-05-04 01:42 30.24002 120.42620 27 ft 0 kts 332°
2026-05-04 01:45 30.24003 120.42619 27 ft 0 kts 332°
2026-05-04 01:45 30.24023 120.42607 27 ft 2 kts 332°
2026-05-04 01:46 30.24042 120.42596 27 ft 3 kts 332°
2026-05-04 01:46 30.24066 120.42581 27 ft 4 kts 332°
2026-05-04 01:46 30.24096 120.42564 27 ft 5 kts 334°
2026-05-04 01:46 30.24131 120.42545 27 ft 6 kts 334°
2026-05-04 01:47 30.24173 120.42532 27 ft 6 kts 15°
2026-05-04 01:47 30.24203 120.42574 27 ft 7 kts 63°
2026-05-04 01:47 30.24228 120.42632 27 ft 8 kts 64°
2026-05-04 01:47 30.24255 120.42695 27 ft 9 kts 63°
2026-05-04 01:48 30.24286 120.42764 27 ft 10 kts 62°
2026-05-04 01:48 30.24339 120.42806 27 ft 10 kts 341°
2026-05-04 01:48 30.24407 120.42767 27 ft 11 kts 332°
2026-05-04 01:48 30.24482 120.42762 27 ft 10 kts 43°
2026-05-04 01:49 30.24522 120.42841 27 ft 11 kts 62°
2026-05-04 01:49 30.24558 120.42930 27 ft 12 kts 65°
2026-05-04 01:49 30.24600 120.43031 27 ft 14 kts 63°
2026-05-04 01:49 30.24650 120.43137 27 ft 15 kts 63°
2026-05-04 01:50 30.24699 120.43250 27 ft 15 kts 63°
2026-05-04 01:50 30.24751 120.43366 27 ft 16 kts 63°
2026-05-04 01:50 30.24804 120.43488 27 ft 17 kts 63°
2026-05-04 01:50 30.24860 120.43613 27 ft 17 kts 62°
2026-05-04 01:51 30.24916 120.43740 27 ft 17 kts 63°
2026-05-04 01:51 30.24987 120.43855 27 ft 17 kts 359°
2026-05-04 01:51 30.25025 120.43839 27 ft 0 kts 334°
2026-05-04 01:52 30.25026 120.43839 27 ft 0 kts 334°
2026-05-04 01:53 30.25032 120.43835 27 ft 2 kts 334°
2026-05-04 01:53 30.25077 120.43810 27 ft 11 kts 333°
2026-05-04 01:53 30.25079 120.43673 27 ft 43 kts 240°
2026-05-04 01:53 30.24844 120.43144 27 ft 104 kts 243°
2026-05-04 01:54 30.24435 120.42210 83 ft 145 kts 243°
2026-05-04 01:54 30.24004 120.41233 666 ft 135 kts 242°
2026-05-04 01:54 30.23543 120.40180 995 ft 153 kts 243°
2026-05-04 01:54 30.23130 120.39122 1806 ft 140 kts 247°
2026-05-04 01:55 30.22796 120.38097 2408 ft 141 kts 250°
2026-05-04 01:55 30.22453 120.36959 2820 ft 158 kts 250°
2026-05-04 01:55 30.22046 120.35778 3480 ft 157 kts 247°
2026-05-04 01:55 30.21580 120.34650 4069 ft 159 kts 244°
2026-05-04 01:56 30.21029 120.33482 4459 ft 177 kts 242°
2026-05-04 01:56 30.20372 120.32128 4637 ft 211 kts 242°
2026-05-04 01:56 30.19555 120.30557 4978 ft 236 kts 240°
2026-05-04 01:56 30.18683 120.28966 5727 ft 240 kts 240°
2026-05-04 01:57 30.17811 120.27298 6251 ft 254 kts 245°
2026-05-04 01:57 30.16954 120.25390 6629 ft 276 kts 246°
2026-05-04 01:57 30.16063 120.23397 7216 ft 287 kts 245°
2026-05-04 01:57 30.15373 120.21265 7980 ft 284 kts 268°
2026-05-04 01:58 30.15714 120.19118 8783 ft 276 kts 300°
2026-05-04 01:58 30.16981 120.17481 9242 ft 285 kts 326°
2026-05-04 01:58 30.18760 120.16244 9335 ft 310 kts 330°
2026-05-04 01:58 30.20650 120.15012 9749 ft 321 kts 330°
2026-05-04 01:59 30.22623 120.13777 10683 ft 306 kts 332°
2026-05-04 01:59 30.24340 120.12779 11335 ft 280 kts 333°
2026-05-04 01:59 30.26071 120.11827 11949 ft 260 kts 332°
2026-05-04 01:59 30.27593 120.10784 11841 ft 241 kts 328°
2026-05-04 02:00 30.28930 120.09863 12208 ft 212 kts 331°
2026-05-04 02:00 30.30305 120.09242 12542 ft 217 kts 336°
2026-05-04 02:00 30.31676 120.08550 13173 ft 212 kts 333°
2026-05-04 02:00 30.32908 120.07858 13581 ft 184 kts 330°
2026-05-04 02:01 30.34059 120.07149 13341 ft 192 kts 327°
2026-05-04 02:01 30.35251 120.06357 13561 ft 207 kts 328°
2026-05-04 02:01 30.36502 120.05487 14047 ft 207 kts 326°
2026-05-04 02:01 30.37699 120.04542 14325 ft 220 kts 323°
2026-05-04 02:02 30.39062 120.03524 14454 ft 240 kts 326°
2026-05-04 02:02 30.40521 120.02516 14772 ft 251 kts 327°
2026-05-04 02:02 30.42064 120.01493 15275 ft 253 kts 328°
2026-05-04 02:02 30.43622 120.00481 15592 ft 267 kts 328°
2026-05-04 02:03 30.45276 119.99425 15949 ft 278 kts 328°
2026-05-04 02:03 30.47019 119.98316 16322 ft 289 kts 328°
2026-05-04 02:03 30.48801 119.97186 16682 ft 299 kts 328°
2026-05-04 02:03 30.50664 119.96004 17030 ft 310 kts 328°
2026-05-04 02:04 30.52590 119.94783 17344 ft 321 kts 328°
2026-05-04 02:04 30.54576 119.93523 17669 ft 330 kts 328°
2026-05-04 02:04 30.56623 119.92225 18070 ft 338 kts 328°
2026-05-04 02:04 30.58682 119.90919 18574 ft 340 kts 328°
2026-05-04 02:05 30.60752 119.89606 19085 ft 342 kts 327°
2026-05-04 02:05 30.62881 119.88312 19601 ft 347 kts 334°
2026-05-04 02:05 30.65328 119.87893 20023 ft 366 kts 359°
2026-05-04 02:05 30.67845 119.88532 20391 ft 378 kts
2026-05-04 02:06 30.70425 119.89332 20774 ft 382 kts
2026-05-04 02:06 30.73006 119.90118 21136 ft 387 kts
2026-05-04 02:06 30.75634 119.90305 21454 ft 374 kts 343°
2026-05-04 02:06 30.78012 119.89270 21855 ft 358 kts 321°
2026-05-04 02:07 30.80066 119.87665 22281 ft 357 kts 317°
2026-05-04 02:07 30.82080 119.85992 22691 ft 358 kts 316°
2026-05-04 02:07 30.84098 119.84280 23146 ft 359 kts 315°
2026-05-04 02:07 30.86119 119.82549 23589 ft 360 kts 315°
2026-05-04 02:08 30.88114 119.80836 23982 ft 362 kts 315°
2026-05-04 02:08 30.90151 119.79085 24354 ft 365 kts 315°
2026-05-04 02:08 30.92212 119.77313 24725 ft 367 kts 315°
2026-05-04 02:08 30.94270 119.75541 25121 ft 369 kts 314°
2026-05-04 02:09 30.96331 119.73766 25522 ft 370 kts 314°
2026-05-04 02:09 30.98398 119.71984 25886 ft 372 kts 314°
2026-05-04 02:09 31.00484 119.70185 26275 ft 373 kts 314°
2026-05-04 02:09 31.02577 119.68380 26583 ft 376 kts 314°
2026-05-04 02:10 31.04632 119.66605 26889 ft 379 kts 314°
2026-05-04 02:10 31.05975 119.65445 27110 ft 380 kts 314°
2026-05-04 02:10 31.08097 119.63612 27468 ft 381 kts 313°
2026-05-04 02:10 31.10217 119.61779 27802 ft 382 kts 313°
2026-05-04 02:11 31.12355 119.59930 28144 ft 383 kts 313°
2026-05-04 02:11 31.14519 119.58056 28452 ft 385 kts 313°
2026-05-04 02:11 31.16666 119.56197 28736 ft 387 kts 313°
2026-05-04 02:11 31.18818 119.54333 29063 ft 388 kts 313°
2026-05-04 02:12 31.20997 119.52443 29376 ft 388 kts 313°
2026-05-04 02:12 31.23178 119.50549 29645 ft 391 kts 313°
2026-05-04 02:12 31.25344 119.48669 29918 ft 392 kts 312°
2026-05-04 02:12 31.27536 119.46765 30171 ft 395 kts 313°
2026-05-04 02:13 31.29771 119.44823 30464 ft 396 kts 312°
2026-05-04 02:13 31.31975 119.42905 30688 ft 399 kts 313°
2026-05-04 02:13 31.34222 119.40950 31007 ft 399 kts 312°
2026-05-04 02:13 31.36475 119.38989 31231 ft 402 kts 312°
2026-05-04 02:14 31.38699 119.37051 31473 ft 404 kts 312°
2026-05-04 02:14 31.40961 119.35078 31745 ft 405 kts 312°
2026-05-04 02:14 31.43227 119.33102 32086 ft 405 kts 312°
2026-05-04 02:14 31.45487 119.31130 32470 ft 403 kts 311°
2026-05-04 02:15 31.47739 119.29163 32838 ft 402 kts 311°
2026-05-04 02:15 31.50007 119.27181 33142 ft 403 kts 311°
2026-05-04 02:15 31.52250 119.25219 33538 ft 401 kts 311°
2026-05-04 02:15 31.54464 119.23283 33846 ft 401 kts 311°
2026-05-04 02:16 31.56686 119.21333 34168 ft 398 kts 311°
2026-05-04 02:16 31.58911 119.19357 34232 ft 403 kts 311°
2026-05-04 02:16 31.63467 119.15314 34254 ft 416 kts 311°
2026-05-04 02:17 31.67895 119.10917 34255 ft 420 kts 307°
2026-05-04 02:17 31.72286 119.06409 34251 ft 419 kts 308°
2026-05-04 02:18 31.76689 119.01901 34251 ft 421 kts 308°
2026-05-04 02:18 31.81137 118.97457 34244 ft 425 kts 313°
2026-05-04 02:19 31.83788 118.95675 34259 ft 442 kts 324°
2026-05-04 02:19 31.86648 118.94335 34260 ft 451 kts 327°
2026-05-04 02:19 31.92526 118.91702 34253 ft 452 kts 327°
2026-05-04 02:20 31.98390 118.89069 34246 ft 452 kts 327°
2026-05-04 02:20 32.04273 118.86425 34245 ft 450 kts 327°
2026-05-04 02:21 32.10123 118.83791 34241 ft 449 kts 327°
2026-05-04 02:21 32.16008 118.81136 34235 ft 451 kts 328°
2026-05-04 02:22 32.21863 118.78495 34231 ft 448 kts 328°
2026-05-04 02:22 32.27656 118.75875 34232 ft 448 kts 328°
2026-05-04 02:23 32.33464 118.73245 34233 ft 449 kts 328°
2026-05-04 02:23 32.39311 118.70595 34231 ft 446 kts 328°
2026-05-04 02:24 32.45099 118.67967 34230 ft 447 kts 328°
2026-05-04 02:24 32.50893 118.65417 34163 ft 444 kts 329°
2026-05-04 02:25 32.56673 118.62822 34077 ft 436 kts 326°
2026-05-04 02:25 32.62328 118.60134 34178 ft 441 kts 328°
2026-05-04 02:26 32.68089 118.57515 34241 ft 446 kts 331°
2026-05-04 02:26 32.74112 118.55415 34245 ft 451 kts 333°
2026-05-04 02:27 32.80114 118.53280 34241 ft 450 kts 333°
2026-05-04 02:27 32.86162 118.51118 34242 ft 451 kts 333°
2026-05-04 02:28 32.92170 118.48968 34242 ft 451 kts 333°
2026-05-04 02:28 32.98183 118.46812 34243 ft 451 kts 333°
2026-05-04 02:29 33.04171 118.44664 34237 ft 448 kts 333°
2026-05-04 02:29 33.10155 118.42512 34232 ft 447 kts 333°
2026-05-04 02:30 33.16138 118.40359 34240 ft 447 kts 334°
2026-05-04 02:30 33.22092 118.38212 34238 ft 449 kts 334°
2026-05-04 02:31 33.28114 118.36044 34232 ft 448 kts 334°
2026-05-04 02:31 33.34078 118.33895 34260 ft 447 kts 334°
2026-05-04 02:32 33.40029 118.31747 34246 ft 445 kts 334°
2026-05-04 02:32 33.45966 118.29601 34249 ft 445 kts 334°
2026-05-04 02:33 33.51893 118.27455 34246 ft 444 kts 335°
2026-05-04 02:33 33.57826 118.25305 34243 ft 443 kts 335°
2026-05-04 02:34 33.63759 118.23151 34248 ft 445 kts 335°
2026-05-04 02:34 33.69725 118.20982 34249 ft 445 kts 336°
2026-05-04 02:35 33.75613 118.18838 34241 ft 445 kts 336°
2026-05-04 02:35 33.81541 118.16677 34245 ft 446 kts 336°
2026-05-04 02:36 33.87518 118.14507 34250 ft 445 kts 336°
2026-05-04 02:36 33.93423 118.12360 34241 ft 444 kts 336°
2026-05-04 02:37 33.99382 118.10189 34243 ft 444 kts 337°
2026-05-04 02:37 34.05305 118.08038 34234 ft 444 kts 337°
2026-05-04 02:38 34.11212 118.05891 34242 ft 445 kts 337°
2026-05-04 02:38 34.17125 118.03741 34238 ft 444 kts 337°
2026-05-04 02:39 34.23060 118.01580 34234 ft 443 kts 337°
2026-05-04 02:39 34.28981 117.99428 34241 ft 444 kts 338°
2026-05-04 02:40 34.34886 117.97327 34244 ft 442 kts 338°
2026-05-04 02:40 34.40785 117.95222 34231 ft 443 kts 338°
2026-05-04 02:41 34.46725 117.93099 34241 ft 444 kts 338°
2026-05-04 02:41 34.52642 117.90982 34236 ft 444 kts 338°
2026-05-04 02:42 34.58567 117.88858 34241 ft 443 kts 339°
2026-05-04 02:42 34.64501 117.86729 34240 ft 443 kts 339°
2026-05-04 02:43 34.70396 117.84609 34233 ft 443 kts 339°
2026-05-04 02:43 34.76340 117.82470 34236 ft 443 kts 339°
2026-05-04 02:44 34.82246 117.80340 34235 ft 442 kts 339°
2026-05-04 02:44 34.88136 117.78180 34239 ft 442 kts 339°
2026-05-04 02:45 34.94014 117.76032 34243 ft 442 kts 339°
2026-05-04 02:45 34.99920 117.73871 34237 ft 442 kts 339°
2026-05-04 02:46 35.05844 117.71700 34234 ft 441 kts 339°
2026-05-04 02:46 35.11741 117.69539 34237 ft 441 kts 339°
2026-05-04 02:47 35.17607 117.67386 34240 ft 441 kts 339°
2026-05-04 02:47 35.23377 117.65269 34271 ft 418 kts 339°
2026-05-04 02:48 35.29036 117.63182 34255 ft 433 kts 339°
2026-05-04 02:48 35.34820 117.61050 34253 ft 435 kts 339°
2026-05-04 02:49 35.40623 117.58909 34134 ft 432 kts 340°
2026-05-04 02:49 35.43441 117.57869 33980 ft 413 kts 340°
2026-05-04 02:49 35.46128 117.56876 33769 ft 397 kts 340°
2026-05-04 02:50 35.48723 117.55916 33491 ft 382 kts 340°
2026-05-04 02:50 35.51255 117.54978 33166 ft 370 kts 339°
2026-05-04 02:50 35.53674 117.54081 32801 ft 360 kts 340°
2026-05-04 02:50 35.56036 117.53205 32398 ft 352 kts 340°
2026-05-04 02:51 35.58361 117.52343 31978 ft 345 kts 340°
2026-05-04 02:51 35.60649 117.51492 31552 ft 338 kts 340°
2026-05-04 02:51 35.62888 117.50661 31106 ft 334 kts 340°
2026-05-04 02:51 35.65082 117.49845 30663 ft 331 kts 341°
2026-05-04 02:52 35.67279 117.49027 30221 ft 328 kts 341°
2026-05-04 02:52 35.69444 117.48222 29761 ft 325 kts 341°
2026-05-04 02:52 35.71595 117.47422 29298 ft 322 kts 341°
2026-05-04 02:52 35.73734 117.46625 28837 ft 319 kts 341°
2026-05-04 02:53 35.75879 117.45825 28370 ft 317 kts 341°
2026-05-04 02:53 35.77981 117.45042 27913 ft 314 kts 341°
2026-05-04 02:53 35.80064 117.44264 27450 ft 312 kts 341°
2026-05-04 02:53 35.82142 117.43488 27017 ft 314 kts 341°
2026-05-04 02:54 35.84308 117.42677 26798 ft 338 kts 341°
2026-05-04 02:54 35.86651 117.41801 26396 ft 365 kts 341°
2026-05-04 02:54 35.89148 117.40868 25916 ft 384 kts 341°
2026-05-04 02:54 35.91703 117.39913 25470 ft 387 kts 341°
2026-05-04 02:55 35.96819 117.37997 24601 ft 380 kts 341°
2026-05-04 02:55 35.99359 117.37064 24175 ft 378 kts 345°
2026-05-04 02:55 36.01983 117.36799 23790 ft 378 kts 358°
2026-05-04 02:56 36.04618 117.36787 23352 ft 378 kts 358°
2026-05-04 02:56 36.07213 117.36785 22939 ft 376 kts 358°
2026-05-04 02:56 36.09823 117.36784 22524 ft 374 kts 358°
2026-05-04 02:56 36.12429 117.36785 22112 ft 372 kts 358°
2026-05-04 02:57 36.15013 117.36787 21701 ft 369 kts 358°
2026-05-04 02:57 36.17564 117.36788 21293 ft 366 kts 358°
2026-05-04 02:57 36.20088 117.36789 20892 ft 364 kts 358°
2026-05-04 02:57 36.22620 117.36790 20490 ft 361 kts 358°
2026-05-04 02:58 36.25114 117.36792 20093 ft 359 kts 358°
2026-05-04 02:58 36.27620 117.36794 19696 ft 357 kts 358°
2026-05-04 02:58 36.30087 117.36794 19306 ft 355 kts 358°
2026-05-04 02:58 36.32555 117.36796 18914 ft 352 kts 358°
2026-05-04 02:59 36.34968 117.36797 18531 ft 350 kts 358°
2026-05-04 02:59 36.37417 117.36798 18142 ft 348 kts 358°
2026-05-04 02:59 36.39830 117.36800 17759 ft 345 kts 358°
2026-05-04 02:59 36.42199 117.36801 17383 ft 343 kts 358°
2026-05-04 03:00 36.44591 117.36802 17004 ft 340 kts 358°
2026-05-04 03:00 36.46932 117.36803 16631 ft 338 kts 358°
2026-05-04 03:00 36.49289 117.36804 16256 ft 338 kts 358°
2026-05-04 03:00 36.51620 117.36806 15880 ft 336 kts 358°
2026-05-04 03:01 36.53955 117.36807 15506 ft 335 kts 358°
2026-05-04 03:01 36.56285 117.36810 15138 ft 332 kts 358°
2026-05-04 03:01 36.58586 117.36815 14771 ft 330 kts 358°
2026-05-04 03:01 36.60857 117.36820 14408 ft 328 kts 358°
2026-05-04 03:02 36.63135 117.36825 14044 ft 326 kts 358°
2026-05-04 03:02 36.65409 117.36829 13682 ft 324 kts 358°
2026-05-04 03:02 36.67662 117.36834 13328 ft 323 kts 358°
2026-05-04 03:02 36.69909 117.36839 12974 ft 323 kts 358°
2026-05-04 03:03 36.72147 117.36843 12620 ft 320 kts 358°
2026-05-04 03:03 36.74377 117.36848 12264 ft 318 kts 358°
2026-05-04 03:03 36.76571 117.36852 11914 ft 317 kts 358°
2026-05-04 03:03 36.78777 117.36857 11562 ft 313 kts 358°
2026-05-04 03:04 36.80929 117.36862 11216 ft 306 kts 358°
2026-05-04 03:04 36.83022 117.36865 10944 ft 297 kts 358°
2026-05-04 03:04 36.85066 117.36867 10634 ft 292 kts 358°
2026-05-04 03:04 36.87081 117.36871 10316 ft 286 kts 358°
2026-05-04 03:05 36.89030 117.36873 10007 ft 279 kts 358°
2026-05-04 03:05 36.90966 117.36875 9699 ft 275 kts 358°
2026-05-04 03:05 36.92869 117.36877 9399 ft 272 kts 358°
2026-05-04 03:05 36.94749 117.36879 9103 ft 272 kts 358°
2026-05-04 03:06 36.96663 117.36881 8797 ft 271 kts 358°
2026-05-04 03:06 36.98539 117.36884 8498 ft 270 kts 358°
2026-05-04 03:06 37.00416 117.36886 8198 ft 270 kts 358°
2026-05-04 03:06 37.02288 117.36888 7900 ft 268 kts 358°
2026-05-04 03:07 37.04162 117.36890 7603 ft 266 kts 358°
2026-05-04 03:07 37.05965 117.36897 7302 ft 257 kts 358°
2026-05-04 03:07 37.07728 117.36904 7015 ft 248 kts 358°
2026-05-04 03:07 37.09440 117.36897 6736 ft 239 kts 353°
2026-05-04 03:08 37.10880 117.36135 6501 ft 225 kts 314°
2026-05-04 03:08 37.11577 117.34430 6193 ft 224 kts 280°
2026-05-04 03:08 37.11727 117.32503 5888 ft 221 kts 276°
2026-05-04 03:08 37.11805 117.30595 5611 ft 218 kts 274°
2026-05-04 03:09 37.11846 117.28749 5415 ft 210 kts 273°
2026-05-04 03:09 37.11870 117.26942 5155 ft 205 kts 272°
2026-05-04 03:09 37.11883 117.25207 4974 ft 195 kts 272°
2026-05-04 03:09 37.11863 117.23534 4704 ft 191 kts 261°
2026-05-04 03:10 37.11162 117.22167 4489 ft 188 kts 215°
2026-05-04 03:10 37.09919 117.21751 4208 ft 189 kts 185°
2026-05-04 03:10 37.08644 117.21680 4080 ft 175 kts 184°
2026-05-04 03:10 37.07454 117.21643 3886 ft 165 kts 182°
2026-05-04 03:11 37.06350 117.21623 3678 ft 156 kts 181°
2026-05-04 03:11 37.05259 117.21613 3499 ft 156 kts 181°
2026-05-04 03:11 37.04216 117.21607 3298 ft 146 kts 181°
2026-05-04 03:11 37.03243 117.21604 3110 ft 132 kts 180°
2026-05-04 03:12 37.02341 117.21603 2939 ft 131 kts 180°
2026-05-04 03:12 37.01392 117.21602 2807 ft 138 kts 180°
2026-05-04 03:12 37.00424 117.21601 2626 ft 139 kts 180°
2026-05-04 03:12 36.99450 117.21601 2436 ft 139 kts 181°
2026-05-04 03:13 36.98491 117.21600 2245 ft 137 kts 181°
2026-05-04 03:13 36.97531 117.21598 2057 ft 137 kts 180°
2026-05-04 03:13 36.96576 117.21600 1871 ft 137 kts 180°
2026-05-04 03:13 36.95634 117.21600 1678 ft 132 kts 180°
2026-05-04 03:14 36.94729 117.21600 1498 ft 129 kts 180°
2026-05-04 03:14 36.93835 117.21599 1335 ft 129 kts 180°
2026-05-04 03:14 36.92938 117.21600 1173 ft 128 kts 180°
2026-05-04 03:14 36.92034 117.21606 1003 ft 128 kts 179°
2026-05-04 03:15 36.91145 117.21609 849 ft 127 kts 180°
2026-05-04 03:15 36.90264 117.21597 689 ft 127 kts 180°
2026-05-04 03:15 36.89381 117.21590 540 ft 127 kts 179°
2026-05-04 03:15 36.88487 117.21602 350 ft 128 kts 179°
2026-05-04 03:16 36.87605 117.21596 187 ft 126 kts 181°
2026-05-04 03:16 36.86762 117.21596 82 ft 102 kts 179°
2026-05-04 03:16 36.86223 117.21600 82 ft 57 kts 180°
2026-05-04 03:16 36.85850 117.21601 82 ft 41 kts 181°
2026-05-04 03:17 36.85617 117.21585 82 ft 30 kts 199°
2026-05-04 03:17 36.85446 117.21496 81 ft 21 kts 211°
2026-05-04 03:17 36.85371 117.21440 81 ft 0 kts 211°
2026-05-04 03:17 36.85359 117.21431 81 ft 6 kts 211°
2026-05-04 03:18 36.85303 117.21391 81 ft 11 kts 204°
2026-05-04 03:18 36.85209 117.21374 81 ft 15 kts 180°
2026-05-04 03:18 36.85140 117.21317 81 ft 13 kts 265°
2026-05-04 03:18 36.85139 117.21200 81 ft 14 kts 269°
2026-05-04 03:19 36.85139 117.21072 81 ft 14 kts 271°
2026-05-04 03:19 36.85167 117.20991 81 ft 5 kts 353°
2026-05-04 03:19 36.85209 117.20982 81 ft 6 kts 332°
2026-05-04 03:19 36.85221 117.20926 81 ft 7 kts 269°
2026-05-04 03:20 36.85220 117.20883 81 ft 2 kts 270°
2026-05-04 03:20 36.85220 117.20880 81 ft 0 kts 270°